Weather in Radchenko

Russia / Tver Oblast     56°40′51″N   36°22′24″E
temp.,
°C
wind,
m/s
gust,
m/s
humid.,
%
clouds,
%
prec.,
mm/h
press.,
hPa
HPBL,
m
27 october, wed
wed2700:00+3sw41278100 0.0 1016390
03:00+2sw41182100 0.0 1014346
06:00+3sw51281100 0.0 1013427
09:00+3sw51378100 0.0 1011488
12:00+4wsw51285100 0.4 1011580
15:00+4wsw51391100 1.5 1011649
18:00+6wsw51286100 0.1 1012602
21:00+6wsw51282100 0.1 1012482
28 october, thu
thu2800:00+5sw5118962 0.0 1012349
03:00+4ssw41094100 0.0 1010342
06:00+5ssw51395100 3.1 1007640
09:00+7wsw41396100 5.4 1006602
12:00+10wnw6128699 0.3 1007888
15:00+8nnw61091100 0.4 1011739
18:00+6n5986100 0.1 1017925
21:00+5n3889100 0.1 1022442
29 october, fri
fri2900:00+5nne259138 0.1 1024296
03:00+2ene2393100 0.1 1027117
06:00+2se2290100 0.0 102877
09:00+2s368893 0.0 1029201
12:00+6ssw497998 0.0 1028593
15:00+7sw51173100 0.0 1027596
18:00+6sw512815 0.0 1027383
21:00+5sw51287100 0.0 1027352
30 october, sat
sat3000:00+5sw41291100 0.0 1027314
03:00+5sw41391100 0.0 1027316
06:00+4sw4128990 0.0 1027306
09:00+4sw4128617 0.0 1028320
12:00+8sw511725 0.0 1027427
15:00+9sw512708 0.0 1027513
18:00+6ssw4128311 0.0 1026355
21:00+5ssw5148781 0.0 1026371
31 october, sun
sun3100:00+5ssw5148849 0.0 1026403
03:00+4ssw513905 0.0 1025388
06:00+4ssw513915 0.0 1024357
09:00+5ssw513905 0.0 1024384
12:00+8sw512761 0.0 1024495
15:00+9sw410754 0.0 1023557
18:00+7ssw41288100 0.0 1023332
21:00+7ssw51386100 0.0 1023384